[[{"header":{"parameterUnit":"m.s-1","parameterCategory":1,"la1":30.2991,"la2":30.254,"lo1":-89.0895,"lo2":-89.0444,"dy":0.0017,"dx":0.0017,"nx":28,"ny":28,"refTime":"2026-01-05T09:00:00:Z","depth":0,"parameterNumber":2,"parameterNumberName":"U-component_of_WINDS"},"data":[0,0,0,0,0,0,0,0,0,0,0,0,0,0,0,0,0,0,0,0,0,0,0,0,0,0,0,0,0,0,0,0,0,0,0,0,0,0,0,0,0,0,0,0,0,0,0,0,0,0,0,0,0,0,0,0,0,0,-0.9564,-0.9564,0,-0.9583,-0.9583,-0.9583,-0.9544,-0.9543,-0.9542,-0.954,-0.9563,-0.9564,-0.9566,0,0,0,0,0,0,0,0,0,0,0,0,0,-0.9497,-0.9499,-0.9564,-0.9564,-0.9564,-0.9582,-0.9583,-0.9583,-0.9544,-0.9543,-0.9541,-0.954,-0.9562,-0.9564,-0.9566,0,0,0,0,0,0,0,0,0,0,0,0,0,-0.9522,-0.9499,-0.9564,-0.9547,-0.9546,-0.9582,-0.9583,-0.9583,-0.9545,-0.9543,-0.9541,-0.9539,-0.9561,-0.9564,-0.9567,-0.9621,0,0,-0.9575,-0.9576,0,0,0,0,0,0,0,0,-0.9521,-0.9525,-0.9549,-0.9548,-0.9547,-0.9559,-0.9567,-0.9596,-0.9545,-0.9545,-0.954,-0.9538,-0.9563,-0.9566,-0.9573,-0.9622,-0.9623,-0.9575,-0.9577,-0.9578,-0.9579,0,0,0,0,0,0,0,-0.9519,-0.9524,-0.9571,-0.955,-0.9548,-0.954,-0.9541,-0.9573,-0.9565,-0.9545,-0.9542,-0.9545,-0.9562,-0.9571,-0.9574,-0.9624,-0.9575,-0.9577,-0.9579,-0.958,-0.972,-0.9722,0,0,0,0,0,0,-0.9519,-0.9522,-0.9571,-0.9572,-0.9529,-0.9542,-0.9544,-0.9557,-0.9564,-0.9564,-0.9546,-0.9543,-0.9567,-0.9571,-0.9574,-0.964,-0.9578,-0.958,-0.9582,-0.9718,-0.972,-0.9722,0,0,0,0,0,0,-0.9518,-0.9524,-0.957,-0.9546,-0.9552,-0.9545,-0.9561,-0.9558,-0.9567,-0.9565,-0.9564,-0.9557,-0.9566,-0.9571,-0.961,-0.964,-0.9581,-0.9584,-0.9715,-0.9718,-0.9721,-0.9771,0,0,0,0,0,0,-0.9516,-0.9523,-0.9543,-0.9547,-0.9553,-0.9604,-0.9562,-0.956,-0.9571,-0.9567,-0.9575,-0.9574,-0.9565,-0.9606,-0.9613,-0.9643,-0.9586,-0.9712,-0.9717,-0.972,-0.9766,-0.9775,-0.9782,0,0,0,0,0,-0.9514,-0.9557,-0.9545,-0.9551,-0.9578,-0.9606,-0.961,-0.9597,-0.9574,-0.9595,-0.9594,-0.9574,-0.9635,-0.9611,-0.9617,-0.9649,-0.971,-0.9715,-0.972,-0.9763,-0.9773,-0.9782,0,0,0,0,0,0,-0.9558,-0.9557,-0.9544,-0.9589,-0.9598,-0.96,-0.9625,-0.9609,-0.9625,-0.9621,-0.9605,-0.9608,-0.965,-0.9653,-0.9626,-0.9703,-0.9669,-0.9676,-0.9699,-0.9709,-0.9717,-0.9716,-0.9588,0,0,0,0,0,-0.9573,-0.9595,-0.9593,-0.9634,-0.9639,-0.9631,-0.9643,-0.9633,-0.9642,-0.9646,-0.9648,-0.9658,-0.968,-0.9694,-0.9714,-0.9766,-0.9768,-0.9791,-0.9799,-0.9806,-0.9812,-0.9841,-0.9851,-0.9738,-0.9738,-0.9738,0,0,-0.9604,-0.9606,-0.9622,-0.9643,-0.9648,-0.9673,-0.9635,-0.9662,-0.9681,-0.965,-0.9688,-0.9689,-0.97,-0.9746,-0.9767,-0.975,-0.9844,-0.9812,-0.9817,-0.982,-0.9847,-0.9858,-0.9867,-0.9741,-0.9741,-0.974,0,0,-0.9674,-0.9677,-0.9712,-0.9718,-0.9727,-0.9722,-0.973,-0.9734,-0.9734,-0.9771,-0.9749,-0.9771,-0.9809,-0.9817,-0.9827,-0.99,-0.9883,-0.9907,-0.995,-0.9979,-0.9987,-0.9995,-1.0023,-1.0033,-0.9913,-0.9913,-0.9913,0,-0.9712,-0.9747,-0.9732,-0.9761,-0.9771,-0.9744,-0.978,-0.9787,-0.9802,-0.9811,-0.9791,-0.9838,-0.9843,-0.9892,-0.991,-0.9918,-0.9928,-0.9907,-0.9987,-0.9995,-1.0002,-1.0028,-1.0039,-0.9916,-0.9916,-0.9915,-0.9915,0,-0.9794,-0.9819,-0.9846,-0.9861,-0.9874,-0.9906,-0.9897,-0.9913,-0.9901,-0.9898,-0.9937,-0.9942,-0.9963,-0.9973,-0.9963,-1.0021,-1.001,-0.9989,-0.9956,-1.0016,-1.0041,-1.005,-0.992,-0.9919,-0.9918,-0.9918,0,0,-0.9893,-0.9899,-0.9909,-0.9916,-0.9924,-0.9943,-0.9974,-0.9994,-1.0008,-1.002,-1.0047,-1.0079,-1.006,-1.0071,-1.0061,-1.0085,-1.0145,-1.0061,-1.0062,-1.0078,-1.0211,-1.0228,-1.0239,-1.0133,-1.0135,-1.0136,-1.021,0,-0.9963,-1.0016,-1.0003,-1.0057,-1.008,-1.0054,-1.0082,-1.0091,-1.0089,-1.0109,-1.0107,-1.0131,-1.0103,-1.011,-1.0133,-1.0133,-1.0172,-1.0127,-1.016,-1.0161,-1.0159,-1.0252,-1.0269,-1.0339,-1.022,-1.0221,-1.0222,0,-1.0052,-1.0066,-1.0122,-1.0126,-1.0136,-1.0161,-1.0178,-1.0197,-1.0207,-1.0204,-1.0216,-1.0201,-1.0234,-1.0199,-1.0244,-1.0214,-1.0227,-1.0229,-1.0231,-1.0235,-1.0196,-1.0259,-1.0361,-1.0372,-1.0237,-1.0236,-1.0235,0,-1.012,-1.0153,-1.0191,-1.0197,-1.0203,-1.0222,-1.0225,-1.0233,-1.0245,-1.0261,-1.0269,-1.0289,-1.03,-1.0315,-1.0307,-1.0282,-1.0355,-1.0319,-1.0354,-1.0355,-1.0372,-1.0371,-1.0478,-1.0378,-1.0378,-1.0377,-1.0377,0,-1.02,-1.0236,-1.0222,-1.0245,-1.0284,-1.0269,-1.0309,-1.0309,-1.0316,-1.034,-1.0319,-1.0342,-1.0329,-1.0352,-1.0345,-1.0385,-1.0389,-1.0389,-1.0387,-1.0392,-1.0392,-1.0401,-1.0396,-1.038,-1.0379,-1.0379,-1.0378,0,-1.0284,-1.0275,-1.0315,-1.0317,-1.0319,-1.0348,-1.035,-1.0372,-1.0369,-1.0399,-1.0406,-1.0401,-1.0426,-1.0419,-1.0447,-1.0443,-1.0493,-1.0484,-1.049,-1.0488,-1.0525,-1.0522,-1.0642,-1.0658,-1.0546,-1.0547,-1.0548,0,-1.0336,-1.0362,-1.0367,-1.0382,-1.0386,-1.0409,-1.0422,-1.0409,-1.0423,-1.0437,-1.0458,-1.0481,-1.0499,-1.0541,-1.0541,-1.0562,-1.0555,-1.0596,-1.0558,-1.0562,-1.0557,-1.0557,-1.056,-1.0604,-1.0605,-1.0606,-1.0607,0,-1.043,-1.0425,-1.0444,-1.0462,-1.0477,-1.0491,-1.0503,-1.0516,-1.0503,-1.0521,-1.0546,-1.056,-1.0588,-1.0613,-1.0632,-1.0637,-1.0621,-1.0618,-1.0628,-1.0634,-1.0636,-1.0637,-1.0511,-1.0616,-1.0615,-1.0614,-1.0614,-1.0613,-1.05,-1.0523,-1.053,-1.0552,-1.056,-1.0571,-1.0593,-1.0592,-1.0612,-1.0634,-1.0625,-1.0654,-1.0664,-1.0689,-1.0696,-1.072,-1.0705,-1.0718,-1.0722,-1.0726,-1.0731,-1.0631,-1.0723,-1.0723,-1.0723,-1.0722,-1.0722,0,-1.0595,-1.0598,-1.0618,-1.0635,-1.0653,-1.0635,-1.0647,-1.0663,-1.0689,-1.0699,-1.0717,-1.0747,-1.0771,-1.0772,-1.0794,-1.0813,-1.0806,-1.082,-1.0819,-1.0821,-1.0743,-1.0733,-1.0825,-1.0825,-1.0825,-1.0825,-1.0825,-1.0825,-1.0646,-1.0684,-1.0679,-1.0721,-1.0724,-1.0753,-1.0761,-1.0773,-1.0781,-1.0815,-1.0833,-1.0834,-1.0841,-1.0864,-1.0885,-1.0885,-1.0895,-1.0911,-1.0908,-1.0836,-1.0826,-1.0816,-1.0807,-1.0913,-1.0913,-1.0984,-1.0985,-1.0986]},{"header":{"parameterUnit":"m.s-1","parameterCategory":1,"la1":30.2991,"la2":30.254,"lo1":-89.0895,"lo2":-89.0444,"dy":0.0017,"dx":0.0017,"nx":28,"ny":28,"refTime":"2026-01-05T09:00:00:Z","depth":0,"parameterNumber":3,"parameterNumberName":"V-component_of_WINDS"},"data":[0,0,0,0,0,0,0,0,0,0,0,0,0,0,0,0,0,0,0,0,0,0,0,0,0,0,0,0,0,0,0,0,0,0,0,0,0,0,0,0,0,0,0,0,0,0,0,0,0,0,0,0,0,0,0,0,0,0,-1.8463,-1.8464,0,-1.8519,-1.8519,-1.852,-1.8506,-1.8505,-1.8504,-1.8503,-1.8558,-1.856,-1.8563,0,0,0,0,0,0,0,0,0,0,0,0,0,-1.8343,-1.8345,-1.8463,-1.8464,-1.8465,-1.8519,-1.852,-1.852,-1.8506,-1.8505,-1.8504,-1.8503,-1.8557,-1.856,-1.8563,0,0,0,0,0,0,0,0,0,0,0,0,0,-1.8397,-1.8346,-1.8463,-1.8464,-1.8465,-1.8519,-1.852,-1.852,-1.8507,-1.8505,-1.8503,-1.8502,-1.8556,-1.856,-1.8563,-1.8619,0,0,-1.8575,-1.8576,0,0,0,0,0,0,0,0,-1.8394,-1.8401,-1.8464,-1.8464,-1.8465,-1.8504,-1.8497,-1.8553,-1.8507,-1.8491,-1.8503,-1.8501,-1.8541,-1.8546,-1.856,-1.8621,-1.8624,-1.8575,-1.8577,-1.8579,-1.858,0,0,0,0,0,0,0,-1.839,-1.8399,-1.8485,-1.8464,-1.8466,-1.8461,-1.8467,-1.8508,-1.8524,-1.8492,-1.8491,-1.8498,-1.8541,-1.8556,-1.8561,-1.8624,-1.8575,-1.8578,-1.8581,-1.8582,-1.8733,-1.8734,0,0,0,0,0,0,-1.8386,-1.8396,-1.8483,-1.8487,-1.8425,-1.8465,-1.8471,-1.8493,-1.8524,-1.8527,-1.8499,-1.8497,-1.8551,-1.8557,-1.8563,-1.8629,-1.8579,-1.8582,-1.8584,-1.8731,-1.8733,-1.8735,0,0,0,0,0,0,-1.8383,-1.8394,-1.8481,-1.8441,-1.8452,-1.8469,-1.8493,-1.8495,-1.851,-1.8529,-1.8532,-1.8512,-1.855,-1.8558,-1.8605,-1.8631,-1.8584,-1.8587,-1.8729,-1.8732,-1.8734,-1.8762,0,0,0,0,0,0,-1.838,-1.8393,-1.8415,-1.8442,-1.8454,-1.8523,-1.8495,-1.8497,-1.8517,-1.8515,-1.8542,-1.8545,-1.8549,-1.8599,-1.8609,-1.8635,-1.859,-1.8727,-1.873,-1.8733,-1.8759,-1.8766,-1.8771,0,0,0,0,0,-1.8376,-1.842,-1.8416,-1.8427,-1.8482,-1.8525,-1.8532,-1.8536,-1.8519,-1.8541,-1.8553,-1.8544,-1.8627,-1.8604,-1.8614,-1.8643,-1.8725,-1.8729,-1.8733,-1.8756,-1.8764,-1.8771,0,0,0,0,0,0,-1.8395,-1.8424,-1.8419,-1.8474,-1.8497,-1.8522,-1.855,-1.8545,-1.8572,-1.8569,-1.8573,-1.8579,-1.8627,-1.864,-1.8614,-1.8697,-1.8673,-1.8679,-1.8687,-1.8695,-1.8701,-1.8697,-1.8593,0,0,0,0,0,-1.8406,-1.8439,-1.8462,-1.8508,-1.852,-1.8533,-1.8552,-1.8553,-1.8577,-1.8586,-1.8602,-1.8625,-1.8656,-1.8676,-1.8706,-1.8761,-1.8766,-1.8785,-1.8791,-1.8796,-1.8801,-1.883,-1.8839,-1.8748,-1.8748,-1.8748,0,0,-1.8429,-1.8448,-1.8469,-1.8513,-1.8531,-1.8564,-1.8541,-1.8578,-1.8602,-1.8592,-1.8637,-1.8649,-1.8675,-1.8726,-1.8749,-1.8738,-1.8827,-1.8801,-1.8805,-1.8807,-1.8835,-1.8844,-1.8851,-1.8751,-1.875,-1.875,0,0,-1.8487,-1.8505,-1.8545,-1.8564,-1.8592,-1.86,-1.8609,-1.8635,-1.8643,-1.8689,-1.8682,-1.871,-1.8764,-1.8782,-1.8799,-1.8863,-1.8855,-1.8872,-1.8904,-1.8932,-1.8939,-1.8945,-1.8968,-1.8976,-1.8878,-1.8878,-1.8878,0,-1.8511,-1.8562,-1.8566,-1.8604,-1.8623,-1.8615,-1.8655,-1.8673,-1.8709,-1.8721,-1.8708,-1.8775,-1.8791,-1.8846,-1.8862,-1.8876,-1.8886,-1.8869,-1.8938,-1.8944,-1.895,-1.8972,-1.898,-1.888,-1.8879,-1.8879,-1.8879,0,-1.859,-1.8625,-1.8654,-1.8689,-1.8712,-1.875,-1.876,-1.8782,-1.8781,-1.879,-1.8836,-1.8856,-1.8889,-1.8902,-1.8902,-1.8957,-1.8949,-1.8937,-1.8913,-1.8961,-1.8981,-1.8989,-1.8882,-1.8881,-1.8881,-1.888,0,0,-1.8662,-1.8699,-1.871,-1.8725,-1.8755,-1.8782,-1.882,-1.8853,-1.8871,-1.8896,-1.8927,-1.8972,-1.8961,-1.8979,-1.8981,-1.9006,-1.9054,-1.899,-1.8991,-1.9001,-1.9115,-1.9124,-1.9133,-1.905,-1.9051,-1.9053,-1.9113,0,-1.8722,-1.879,-1.8795,-1.8855,-1.8887,-1.888,-1.8913,-1.8934,-1.8943,-1.8971,-1.8981,-1.9013,-1.8996,-1.9007,-1.9032,-1.9043,-1.9077,-1.9039,-1.9078,-1.9079,-1.9071,-1.9144,-1.9154,-1.921,-1.9121,-1.9122,-1.9123,0,-1.8802,-1.8829,-1.8893,-1.8918,-1.8931,-1.8961,-1.8991,-1.9018,-1.9042,-1.9047,-1.9067,-1.9065,-1.9103,-1.9077,-1.9129,-1.9103,-1.9119,-1.9127,-1.9129,-1.9132,-1.9104,-1.9149,-1.9228,-1.9236,-1.9136,-1.9135,-1.9134,0,-1.8847,-1.89,-1.8945,-1.8959,-1.8989,-1.9009,-1.9023,-1.9045,-1.9064,-1.909,-1.9103,-1.9133,-1.9149,-1.9172,-1.9177,-1.9158,-1.9228,-1.9204,-1.9233,-1.9233,-1.9248,-1.9247,-1.933,-1.9259,-1.9259,-1.9258,-1.9258,0,-1.8914,-1.8953,-1.8966,-1.8993,-1.9037,-1.9041,-1.9084,-1.9096,-1.9115,-1.9144,-1.914,-1.9167,-1.9173,-1.9201,-1.9206,-1.9247,-1.9254,-1.9259,-1.9259,-1.9259,-1.9258,-1.9269,-1.9266,-1.9261,-1.926,-1.926,-1.9259,0,-1.8972,-1.8983,-1.9031,-1.9055,-1.9062,-1.9093,-1.9114,-1.9139,-1.9148,-1.9185,-1.9194,-1.9207,-1.924,-1.9248,-1.9287,-1.929,-1.9338,-1.9336,-1.9331,-1.933,-1.9359,-1.9356,-1.9452,-1.9464,-1.9385,-1.9386,-1.9387,0,-1.9014,-1.9044,-1.9072,-1.9091,-1.9106,-1.9137,-1.9157,-1.9162,-1.9183,-1.9211,-1.9234,-1.9266,-1.9292,-1.9344,-1.9357,-1.9386,-1.9384,-1.9415,-1.9388,-1.9387,-1.9384,-1.9382,-1.9384,-1.942,-1.9421,-1.9422,-1.9423,0,-1.9087,-1.909,-1.9119,-1.915,-1.9174,-1.9198,-1.9221,-1.9237,-1.9246,-1.9269,-1.9303,-1.9323,-1.9363,-1.9394,-1.9424,-1.9436,-1.9431,-1.9431,-1.9439,-1.9439,-1.9435,-1.9437,-1.9344,-1.9429,-1.9428,-1.9428,-1.9427,-1.9427,-1.9138,-1.9164,-1.9187,-1.9219,-1.9238,-1.9259,-1.9285,-1.9297,-1.9325,-1.9358,-1.936,-1.9396,-1.9418,-1.9457,-1.9471,-1.9499,-1.9489,-1.9501,-1.9504,-1.9507,-1.951,-1.9431,-1.9505,-1.9504,-1.9504,-1.9504,-1.9504,0,-1.921,-1.9224,-1.9254,-1.9287,-1.9312,-1.9305,-1.933,-1.9351,-1.9384,-1.9405,-1.9431,-1.9469,-1.95,-1.9515,-1.9545,-1.9564,-1.9562,-1.9572,-1.957,-1.9573,-1.9517,-1.9506,-1.9573,-1.9573,-1.9573,-1.9573,-1.9573,-1.9573,-1.925,-1.9294,-1.93,-1.9352,-1.9366,-1.9402,-1.9417,-1.9437,-1.9454,-1.9497,-1.9522,-1.9532,-1.9551,-1.9582,-1.9609,-1.9613,-1.9624,-1.9635,-1.9637,-1.9584,-1.9577,-1.957,-1.9561,-1.9637,-1.9637,-1.9691,-1.9691,-1.9691]}]]